Location: Unspecified
(60.8787°N, 0.0000°E)
Time: 05:04:13
(UTC+00:00)

Sep Motor Cover - Visible Passes

Search period start: 04 April 2026 00:00
Search period end: 14 April 2026 00:00
Orbit: 839 x 1135 km, 71.0° (Epoch: 29 March)

Date Brightness Start Highest point End Pass type
(mag) Time Alt. Az. Time Alt. Az. Time Alt. Az.
4 Apr ? 00:20:45 10° NW 00:27:55 88° NE 00:32:12 27° SE visible
4 Apr ? 02:08:23 10° NW 02:14:43 36° WSW 02:17:03 29° SW visible
4 Apr ? 19:25:15 10° W 19:31:42 43° NNW 19:38:29 10° NE visible
4 Apr ? 21:14:12 10° WNW 21:20:38 38° N 21:27:17 10° ENE visible
4 Apr ? 23:02:21 10° NW 23:09:19 56° NNE 23:15:18 15° ESE visible
5 Apr ? 00:49:53 10° NW 00:56:58 67° WSW 01:00:09 35° SSE visible
5 Apr ? 02:37:51 10° NW 02:43:13 23° W 02:45:01 21° WSW visible
5 Apr ? 19:54:58 10° WNW 20:01:21 38° N 20:08:00 10° ENE visible
5 Apr ? 21:43:41 10° NW 21:50:19 41° NNE 21:57:06 10° E visible
5 Apr ? 23:31:32 10° NW 23:38:40 73° NE 23:43:19 24° SE visible
6 Apr ? 01:19:03 10° NW 01:25:48 46° WSW 01:28:11 35° SSW visible
6 Apr ? 03:07:58 10° WNW 03:11:28 14° W 03:13:03 13° WSW visible
6 Apr ? 20:24:39 10° WNW 20:31:04 37° N 20:37:41 10° ENE visible
6 Apr ? 22:13:02 10° NW 22:19:54 49° NNE 22:26:32 11° E visible
7 Apr ? 00:00:40 10° NW 00:07:51 83° SW 00:11:24 33° SSE visible
7 Apr ? 01:48:22 10° NW 01:54:26 31° WSW 01:56:17 27° SW visible
7 Apr ? 20:54:14 10° WNW 21:00:46 39° N 21:07:28 10° ENE visible
7 Apr ? 22:42:16 10° NW 22:49:21 62° NE 22:54:41 19° ESE visible
8 Apr ? 00:29:48 10° NW 00:36:49 59° WSW 00:39:32 38° S visible
8 Apr ? 02:18:00 10° NW 02:22:50 20° W 02:24:25 18° WSW visible
8 Apr ? 19:35:03 10° WNW 19:41:29 38° N 19:48:07 10° ENE visible
8 Apr ? 21:23:41 10° NW 21:30:25 44° NNE 21:37:16 10° E visible
8 Apr ? 23:11:26 10° NW 23:18:38 81° NE 23:22:51 28° SE visible
9 Apr ? 00:59:01 10° NW 01:05:34 40° WSW 01:07:43 32° SW visible
9 Apr ? 02:48:46 10° WNW 02:51:00 12° W 02:52:36 11° W visible
9 Apr ? 20:04:43 10° WNW 20:11:12 37° N 20:17:51 10° ENE visible
9 Apr ? 21:52:59 10° NW 21:59:57 53° NNE 22:06:11 14° ESE visible
9 Apr ? 23:40:34 10° NW 23:47:44 74° SW 23:51:04 35° SSE visible
10 Apr ? 01:28:25 10° NW 01:34:07 26° W 01:35:56 23° WSW visible
10 Apr ? 20:34:15 10° NW 20:40:53 40° NNE 20:47:39 10° E visible
10 Apr ? 22:22:11 10° NW 22:29:21 68° NE 22:34:26 21° ESE visible
11 Apr ? 00:09:44 10° NW 00:16:37 51° WSW 00:19:19 35° SSW visible
11 Apr ? 01:58:17 10° WNW 02:02:25 16° W 02:04:11 15° WSW visible
11 Apr ? 21:03:39 10° NW 21:10:30 47° NNE 21:17:25 10° E visible
11 Apr ? 22:51:20 10° NW 22:58:35 90° S 23:02:42 28° SE visible
12 Apr ? 00:39:00 10° NW 00:45:18 34° WSW 00:47:35 28° SW visible
12 Apr ? 21:32:55 10° NW 21:40:00 58° NE 21:46:08 14° ESE visible
12 Apr ? 23:20:29 10° NW 23:27:36 65° WSW 23:31:01 33° S visible
13 Apr ? 01:08:31 10° NW 01:13:45 22° W 01:15:53 19° WSW visible
13 Apr ? 20:14:15 10° NW 20:21:00 42° NNE 20:27:48 10° E visible
13 Apr ? 22:02:06 10° NW 22:09:20 75° NE 22:14:27 21° SE visible
